Trenton, NJ

8:44 PM EST on December 11, 2017 (GMT -0500)
Trenton Mercer

Weather History for KTTN - February, 2014

Change the Weather History Date:

Wednesday, February 26, 2014

  Actual Average Record
Temperature  
Mean Temperature 23 °F 36 °F  
Max Temperature 31 °F 45 °F 70 °F (1890)
Min Temperature 14 °F 28 °F 5 °F (1990)
Degree Days  
Heating Degree Days 42 29  
Month to date heating degree days 906 811  
Since 1 July heating degree days 3991 3757  
Cooling Degree Days 0 0  
Month to date cooling degree days 0 0  
Year to date cooling degree days 0 0  
Moisture  
Dew Point 14 °F    
Average Humidity 61    
Maximum Humidity 92    
Minimum Humidity 29    
Precipitation  
Precipitation 0.03 in 0.09 in 1.46 in (1929)
Month to date precipitation 4.39 2.11  
Year to date precipitation 7.66 5.27  
Sea Level Pressure  
Sea Level Pressure 29.90 in    
Wind  
Wind Speed 6 mph (West)    
Max Wind Speed 23 mph    
Max Gust Speed 36 mph    
Visibility 6 miles    
Events Fog , Snow    
T = Trace of Precipitation, MM = Missing Value Source: NWS Daily Summary

Daily Weather History Graph

Daily Weather History Graph

Search for Another Location

Airport or City:

Trip Planner

Search our weather history database for the weather conditions in past years. The results will help you decide how hot, cold, wet, or windy it might be!

Date:

Astronomy

Feb. 26, 2014 Rise Set
Actual Time 6:37 AM EST 5:47 PM EST
Civil Twilight 6:09 AM EST 6:14 PM EST
Nautical Twilight 5:38 AM EST 6:46 PM EST
Astronomical Twilight 5:06 AM EST 7:17 PM EST
Moon 4:21 AM EST (2/26) 2:59 PM EST (2/26)
Length of Visible Light 12h 04m
Length of Day
11h 10m
Waning Crescent, 10% of the Moon is Illuminated
Feb 26
Waning Crescent
Mar 1
New
Mar 8
First Quarter
Mar 16
Full
Mar 23
Last Quarter

Hourly Weather History & Observations

Time (EST) Temp. Windchill Dew Point Humidity Pressure Visibility Wind Dir Wind Speed Gust Speed Precip Events Conditions
12:53 AM 25.0 °F - 10.0 °F 53% 29.97 in 10.0 mi Calm Calm - N/A   Clear
1:53 AM 25.0 °F - 10.0 °F 53% 29.96 in 10.0 mi Calm Calm - N/A   Clear
2:53 AM 25.0 °F - 10.9 °F 55% 29.93 in 10.0 mi Calm Calm - N/A   Scattered Clouds
3:53 AM 25.0 °F 20.7 °F 12.9 °F 60% 29.92 in 10.0 mi SW 3.5 mph - N/A   Overcast
4:53 AM 26.1 °F - 12.0 °F 55% 29.91 in 10.0 mi Calm Calm - N/A   Overcast
5:53 AM 26.1 °F - 12.9 °F 58% 29.90 in 10.0 mi Calm Calm - N/A   Overcast
6:53 AM 25.0 °F 17.1 °F 18.0 °F 75% 29.90 in 3.0 mi SSW 6.9 mph - 0.00 in Snow Light Snow
7:14 AM 25.0 °F 17.1 °F 19.0 °F 78% 29.90 in 2.0 mi SSW 6.9 mph - 0.00 in Snow Light Snow
7:38 AM 25.0 °F 18.1 °F 19.9 °F 81% 29.92 in 1.5 mi SW 5.8 mph - 0.00 in Snow Light Snow
7:53 AM 25.0 °F 18.1 °F 21.0 °F 85% 29.90 in 0.8 mi SW 5.8 mph - 0.00 in Snow Light Snow
8:06 AM 25.0 °F 19.3 °F 21.9 °F 88% 29.91 in 1.2 mi SW 4.6 mph - 0.01 in Snow Light Snow
8:24 AM 25.0 °F 19.3 °F 21.9 °F 88% 29.91 in 0.8 mi SW 4.6 mph - 0.01 in Snow Light Snow
8:31 AM 25.0 °F 18.1 °F 21.9 °F 88% 29.92 in 0.5 mi SW 5.8 mph - 0.01 in Fog , Snow Snow
8:39 AM 25.0 °F 17.1 °F 21.9 °F 88% 29.92 in 1.0 mi SW 6.9 mph - 0.02 in Snow Light Snow
8:53 AM 26.1 °F 19.4 °F 23.0 °F 88% 29.92 in 1.0 mi SSW 5.8 mph - 0.02 in Snow Light Snow
9:03 AM 26.1 °F 19.4 °F 21.9 °F 84% 29.93 in 1.0 mi SW 5.8 mph - 0.00 in Snow Light Snow
9:15 AM 26.1 °F 19.4 °F 23.0 °F 88% 29.93 in 0.8 mi WSW 5.8 mph - 0.00 in Snow Light Snow
9:19 AM 26.1 °F 19.4 °F 23.0 °F 88% 29.93 in 1.0 mi SW 5.8 mph - 0.00 in Snow Light Snow
9:44 AM 27.0 °F 19.5 °F 23.0 °F 85% 29.93 in 0.8 mi SW 6.9 mph - 0.00 in Snow Light Snow
9:53 AM 27.0 °F 18.7 °F 24.1 °F 89% 29.93 in 0.8 mi SW 8.1 mph - 0.01 in Snow Light Snow
10:03 AM 27.0 °F 19.5 °F 23.0 °F 85% 29.93 in 1.5 mi SW 6.9 mph - 0.00 in Snow Light Snow
10:29 AM 28.0 °F 18.1 °F 23.0 °F 81% 29.93 in 2.5 mi WSW 11.5 mph - 0.00 in Snow Light Snow
10:36 AM 28.9 °F 19.8 °F 23.0 °F 78% 29.93 in 3.0 mi WSW 10.4 mph 17.3 mph 0.00 in Snow Light Snow
10:48 AM 28.4 °F 19.7 °F 23.0 °F 80% 29.92 in 2.5 mi West 9.2 mph 19.6 mph 0.00 in Snow Light Snow
10:53 AM 28.9 °F - 21.9 °F 75% 29.92 in 0.8 mi North - - 0.00 in Snow Light Snow
11:01 AM 25.0 °F 9.9 °F 21.0 °F 85% 29.93 in 0.2 mi NW 23.0 mph - 0.00 in Fog Light Freezing Fog
11:08 AM 26.1 °F 14.5 °F 19.9 °F 78% 29.92 in 1.2 mi NW 13.8 mph - 0.00 in Snow Light Snow
11:11 AM 26.1 °F 16.2 °F 19.9 °F 78% 29.92 in 3.0 mi WNW 10.4 mph - 0.00 in Snow Light Snow
11:21 AM 28.0 °F 17.5 °F 19.0 °F 69% 29.91 in 9.0 mi WNW 12.7 mph 19.6 mph 0.00 in   Mostly Cloudy
11:53 AM 28.9 °F 18.2 °F 15.1 °F 56% 29.89 in 10.0 mi WNW 13.8 mph 26.5 mph 0.00 in   Partly Cloudy
12:53 PM 28.9 °F 18.2 °F 15.1 °F 56% 29.86 in 10.0 mi NW 13.8 mph 21.9 mph N/A   Overcast
1:53 PM 30.0 °F 18.3 °F 7.0 °F 38% 29.84 in 10.0 mi NW 17.3 mph 25.3 mph N/A   Mostly Cloudy
2:53 PM 28.9 °F 17.7 °F 6.1 °F 38% 29.84 in 10.0 mi NW 15.0 mph - N/A   Partly Cloudy
3:53 PM 28.0 °F 17.5 °F -0.9 °F 29% 29.84 in 10.0 mi WNW 12.7 mph - N/A   Clear
4:53 PM 27.0 °F 19.5 °F -0.9 °F 30% 29.83 in 10.0 mi NW 6.9 mph 19.6 mph N/A   Clear
5:53 PM 25.0 °F 15.5 °F -4.0 °F 28% 29.84 in 10.0 mi NW 9.2 mph - N/A   Clear
6:53 PM 23.0 °F 15.8 °F -4.0 °F 31% 29.86 in 10.0 mi WNW 5.8 mph - N/A   Clear
7:53 PM 21.9 °F 14.5 °F -2.9 °F 34% 29.87 in 10.0 mi Variable 5.8 mph - N/A   Clear
8:53 PM 21.0 °F 16.2 °F -2.0 °F 36% 29.87 in 10.0 mi WNW 3.5 mph - N/A   Clear
9:53 PM 19.0 °F 7.5 °F -0.9 °F 42% 29.88 in 10.0 mi NW 10.4 mph - N/A   Clear
10:53 PM 18.0 °F 12.7 °F -0.0 °F 45% 29.89 in 10.0 mi NW 3.5 mph - N/A   Clear
11:53 PM 14.0 °F - 1.0 °F 56% 29.88 in 10.0 mi Calm Calm - N/A   Clear